Total_Precipitation_Accumulation
2.15 2.19 2.15 2.07 1.91 1.80 1.68 1.62 1.55 1.48 1.47 1.47 1.49 1.52 1.53 1.52 1.54 1.55 1.48 1.48 1.54 1.69 1.78 1.83 1.85 1.88 1.96 1.96 1.99 2.06 2.19 2.34 2.44 2.31 2.13 2.05 2.02 1.93 1.82 1.64 1.52 1.51 1.50
1.71 1.72 1.71 1.64 1.55 1.47 1.40 1.36 1.38 1.38 1.37 1.39 1.41 1.40 1.45 1.54 1.58 1.51 1.41 1.38 1.48 1.60 1.70 1.78 1.75 1.70 1.76 1.84 1.90 1.90 1.94 2.07 2.21 2.24 2.10 1.95 1.93 1.90 1.84 1.77 1.49 1.35 1.35
1.43 1.43 1.43 1.47 1.45 1.39 1.39 1.42 1.40 1.37 1.36 1.33 1.28 1.32 1.38 1.43 1.44 1.40 1.33 1.30 1.33 1.40 1.48 1.51 1.52 1.53 1.49 1.51 1.58 1.66 1.66 1.68 1.86 1.92 1.89 1.84 1.77 1.72 1.78 1.75 1.59 1.61 1.32
1.35 1.32 1.26 1.24 1.29 1.31 1.31 1.32 1.27 1.25 1.29 1.33 1.30 1.25 1.24 1.17 1.10 1.08 1.07 1.11 1.12 1.13 1.17 1.19 1.24 1.33 1.34 1.38 1.36 1.43 1.48 1.61 1.70 1.77 1.72 1.69 1.68 1.59 1.63 1.67 1.62 1.51 1.35
1.49 1.44 1.34 1.24 1.24 1.28 1.26 1.21 1.15 1.11 1.06 1.12 1.16 1.10 0.99 0.86 0.76 0.77 0.83 0.86 0.93 0.94 0.96 0.94 0.93 1.07 1.17 1.16 1.07 1.19 1.36 1.52 1.60 1.64 1.58 1.49 1.43 1.51 1.49 1.44 1.47 1.46 1.38
1.63 1.70 1.69 1.55 1.48 1.44 1.32 1.20 1.19 1.18 1.11 1.03 0.99 0.98 0.88 0.68 0.68 0.65 0.72 0.86 0.95 0.93 0.95 0.95 0.88 0.91 0.94 0.90 0.87 1.00 1.22 1.29 1.40 1.54 1.56 1.51 1.44 1.47 1.48 1.45 1.52 1.58 1.58
1.67 1.71 1.71 1.66 1.60 1.54 1.36 1.23 1.24 1.24 1.21 1.17 1.05 1.00 0.98 0.88 0.73 0.59 0.62 0.78 0.91 0.93 0.94 0.94 0.81 0.75 0.83 0.85 0.85 0.87 0.95 0.97 1.10 1.37 1.54 1.48 1.47 1.56 1.64 1.58 1.67 1.69 1.60
1.72 1.70 1.65 1.54 1.51 1.44 1.34 1.31 1.29 1.24 1.20 1.14 1.07 0.99 0.92 0.74 0.58 0.51 0.53 0.66 0.84 0.89 0.89 0.90 0.91 0.84 0.78 0.79 0.80 0.85 0.92 0.97 0.99 1.07 1.32 1.38 1.38 1.49 1.60 1.66 1.75 1.70 1.60
1.70 1.60 1.50 1.40 1.38 1.31 1.28 1.21 1.16 1.13 1.11 1.03 0.92 0.88 0.87 0.74 0.51 0.43 0.49 0.67 0.84 0.85 0.81 0.74 0.79 0.81 0.78 0.73 0.80 0.95 1.02 1.05 0.90 0.92 1.04 1.15 1.20 1.31 1.39 1.48 1.71 1.86 1.75
1.46 1.27 1.19 1.19 1.19 1.13 1.07 1.03 1.00 1.00 0.99 0.90 0.79 0.81 0.82 0.79 0.63 0.52 0.54 0.64 0.80 0.79 0.80 0.76 0.70 0.69 0.69 0.70 0.80 0.95 1.03 1.03 0.94 0.94 1.12 1.23 1.22 1.31 1.37 1.50 1.75 1.81 1.69
1.30 1.20 1.14 1.08 1.02 0.99 0.98 0.99 0.94 0.89 0.92 0.93 0.90 0.84 0.77 0.68 0.55 0.47 0.48 0.50 0.64 0.71 0.73 0.80 0.75 0.65 0.61 0.63 0.75 0.82 0.88 0.88 1.00 1.16 1.25 1.29 1.31 1.37 1.38 1.42 1.63 1.74 1.77
1.21 1.17 1.18 1.08 0.91 0.90 1.03 0.99 0.96 0.97 0.98 0.93 0.89 0.82 0.69 0.60 0.48 0.41 0.41 0.45 0.52 0.66 0.76 0.77 0.71 0.64 0.59 0.62 0.68 0.73 0.76 0.88 1.08 1.27 1.35 1.33 1.25 1.24 1.28 1.30 1.45 1.59 1.66
1.21 1.19 1.09 0.98 1.01 0.99 1.02 0.99 0.93 0.92 0.85 0.76 0.73 0.72 0.65 0.57 0.48 0.39 0.42 0.48 0.54 0.61 0.67 0.64 0.59 0.60 0.61 0.72 0.76 0.76 0.86 1.09 1.23 1.29 1.36 1.35 1.24 1.17 1.18 1.15 1.25 1.44 1.48
1.29 1.24 1.11 1.00 0.95 0.95 0.95 0.87 0.81 0.78 0.75 0.71 0.67 0.64 0.60 0.57 0.52 0.49 0.50 0.50 0.53 0.59 0.61 0.61 0.65 0.69 0.74 0.84 0.95 1.05 1.09 1.16 1.15 1.22 1.28 1.23 1.11 1.07 1.14 1.16 1.24 1.35 1.41
1.21 1.10 0.98 0.84 0.79 0.81 0.77 0.70 0.65 0.62 0.57 0.56 0.54 0.52 0.56 0.55 0.48 0.47 0.46 0.46 0.49 0.52 0.54 0.70 0.90 0.95 1.03 1.10 1.14 1.18 1.22 1.15 1.09 1.11 1.15 1.15 1.11 1.08 1.10 1.08 1.17 1.25 1.36
1.10 0.92 0.77 0.68 0.61 0.54 0.54 0.56 0.48 0.44 0.42 0.39 0.40 0.40 0.39 0.38 0.36 0.35 0.37 0.40 0.43 0.49 0.55 0.78 0.90 0.97 1.05 1.08 1.08 1.11 1.15 1.17 1.11 1.07 1.08 1.06 1.05 1.04 1.07 1.03 1.06 1.19 1.28
0.89 0.72 0.59 0.54 0.53 0.50 0.49 0.57 0.59 0.44 0.35 0.32 0.35 0.36 0.36 0.32 0.31 0.34 0.39 0.43 0.48 0.58 0.70 0.86 0.89 0.93 0.99 0.96 0.96 1.00 1.01 1.02 0.97 0.96 0.95 0.93 0.92 0.93 0.99 1.00 0.97 0.98 0.99
0.60 0.49 0.43 0.47 0.46 0.42 0.41 0.45 0.51 0.56 0.54 0.45 0.39 0.37 0.33 0.34 0.33 0.36 0.45 0.51 0.63 0.72 0.77 0.82 0.84 0.84 0.89 0.90 0.90 0.90 0.86 0.82 0.79 0.83 0.88 0.87 0.86 0.86 0.88 0.89 0.85 0.84 0.89
0.43 0.42 0.38 0.37 0.35 0.32 0.31 0.33 0.35 0.43 0.53 0.54 0.47 0.41 0.39 0.44 0.46 0.48 0.54 0.59 0.69 0.74 0.73 0.74 0.76 0.76 0.76 0.83 0.84 0.78 0.72 0.69 0.69 0.70 0.73 0.76 0.79 0.76 0.77 0.73 0.70 0.67 0.75
0.36 0.33 0.35 0.33 0.34 0.33 0.32 0.33 0.35 0.39 0.44 0.49 0.48 0.42 0.45 0.55 0.64 0.65 0.63 0.61 0.61 0.63 0.64 0.64 0.62 0.60 0.62 0.67 0.67 0.63 0.61 0.62 0.62 0.62 0.63 0.63 0.62 0.64 0.66 0.63 0.61 0.63 0.69
0.27 0.26 0.28 0.28 0.32 0.33 0.34 0.36 0.37 0.37 0.42 0.47 0.44 0.42 0.46 0.51 0.59 0.61 0.62 0.59 0.57 0.58 0.59 0.57 0.53 0.51 0.52 0.55 0.55 0.56 0.56 0.58 0.59 0.61 0.60 0.56 0.54 0.55 0.53 0.52 0.54 0.55 0.57
0.27 0.27 0.26 0.27 0.28 0.30 0.32 0.37 0.42 0.44 0.45 0.48 0.50 0.46 0.48 0.49 0.54 0.58 0.60 0.57 0.53 0.52 0.52 0.52 0.48 0.47 0.48 0.50 0.51 0.50 0.49 0.51 0.56 0.60 0.58 0.53 0.51 0.50 0.48 0.48 0.50 0.52 0.52
0.27 0.26 0.26 0.27 0.25 0.25 0.28 0.31 0.35 0.40 0.43 0.49 0.52 0.49 0.47 0.50 0.54 0.57 0.57 0.50 0.42 0.40 0.42 0.47 0.48 0.44 0.43 0.43 0.42 0.42 0.40 0.41 0.45 0.51 0.52 0.48 0.48 0.45 0.43 0.43 0.43 0.48 0.51
0.24 0.26 0.27 0.29 0.28 0.27 0.29 0.30 0.33 0.35 0.37 0.43 0.48 0.47 0.47 0.52 0.52 0.51 0.49 0.41 0.35 0.34 0.35 0.39 0.43 0.42 0.38 0.37 0.37 0.35 0.36 0.36 0.37 0.37 0.39 0.42 0.46 0.42 0.40 0.40 0.41 0.45 0.50
0.23 0.25 0.29 0.30 0.31 0.31 0.29 0.28 0.30 0.32 0.34 0.40 0.45 0.43 0.40 0.42 0.45 0.46 0.43 0.41 0.38 0.37 0.36 0.35 0.36 0.35 0.33 0.33 0.32 0.29 0.30 0.33 0.33 0.32 0.30 0.33 0.38 0.38 0.40 0.43 0.44 0.46 0.49
0.18 0.23 0.27 0.30 0.33 0.32 0.29 0.28 0.31 0.34 0.35 0.36 0.37 0.37 0.36 0.37 0.40 0.42 0.40 0.40 0.37 0.36 0.34 0.32 0.32 0.32 0.34 0.35 0.35 0.32 0.30 0.28 0.28 0.31 0.30 0.32 0.36 0.39 0.42 0.44 0.44 0.48 0.51